• In Deutschland
  • Länderverzeichnis
  • Für 7 Tage
  • Wassertemperatur
  • Satellitenkarten
  • Wetterkarte
  • Widgets
  • user-avatar
    Anmelden

    Stündliche Wetter Kaprun

    Heute, 27 Juni, Dienstag

    Zeit Temperatur Niederschläge Wind Luftdruck Luftfeuchtigkeit
    00:00 +8°C° 0,2 mm 2 m/S 597 mmHg 93%
    01:00 +8°C° 0 mm 2 m/S 597 mmHg 94%
    02:00 +8°C° 0,4 mm 2 m/S 597 mmHg 94%
    03:00 +8°C° 0,4 mm 2 m/S 597 mmHg 95%
    04:00 +9°C° 0,4 mm 1 m/S 597 mmHg 96%
    05:00 +10°C° 0,3 mm 1 m/S 597 mmHg 94%
    06:00 +11°C° 0,3 mm 1 m/S 597 mmHg 92%
    07:00 +12°C° 0,3 mm 1 m/S 598 mmHg 90%
    08:00 +13°C° 0,4 mm 1 m/S 598 mmHg 84%
    09:00 +14°C° 0,4 mm 2 m/S 599 mmHg 78%
    10:00 +16°C° 0,4 mm 2 m/S 599 mmHg 72%
    11:00 +16°C° 1,1 mm 2 m/S 599 mmHg 73%
    12:00 +16°C° 1,1 mm 2 m/S 599 mmHg 74%
    13:00 +17°C° 1,1 mm 2 m/S 598 mmHg 75%
    14:00 +16°C° 1,5 mm 2 m/S 598 mmHg 77%
    15:00 +16°C° 1,5 mm 2 m/S 598 mmHg 79%
    16:00 +15°C° 1,5 mm 2 m/S 598 mmHg 82%
    17:00 +15°C° 0,6 mm 2 m/S 597 mmHg 84%
    18:00 +14°C° 0,6 mm 2 m/S 597 mmHg 87%
    19:00 +13°C° 0,6 mm 2 m/S 596 mmHg 89%
    20:00 +12°C° 0,1 mm 2 m/S 596 mmHg 91%
    21:00 +10°C° 0,1 mm 2 m/S 595 mmHg 93%
    22:00 +8°C° 0,1 mm 2 m/S 595 mmHg 95%
    23:00 +8°C° 0 mm 2 m/S 594 mmHg 95%

    Morgen, 28 Juni, Mittwoch

    Zeit Temperatur Niederschläge Wind Luftdruck Luftfeuchtigkeit
    00:00 +8°C° 0 mm 2 m/S 594 mmHg 94%
    01:00 +8°C° 0 mm 2 m/S 594 mmHg 94%
    02:00 +8°C° 0 mm 2 m/S 593 mmHg 94%
    03:00 +8°C° 0 mm 2 m/S 593 mmHg 94%
    04:00 +8°C° 0 mm 2 m/S 593 mmHg 94%
    05:00 +9°C° 0,1 mm 3 m/S 593 mmHg 93%
    06:00 +10°C° 0,1 mm 3 m/S 593 mmHg 91%
    07:00 +11°C° 0,1 mm 3 m/S 593 mmHg 89%
    08:00 +12°C° 0 mm 3 m/S 594 mmHg 81%
    09:00 +14°C° 0 mm 3 m/S 594 mmHg 73%
    10:00 +16°C° 0 mm 3 m/S 595 mmHg 65%
    11:00 +17°C° 0,6 mm 3 m/S 595 mmHg 66%
    12:00 +17°C° 0,6 mm 3 m/S 594 mmHg 66%
    13:00 +17°C° 0,6 mm 3 m/S 594 mmHg 66%
    14:00 +16°C° 1,2 mm 3 m/S 594 mmHg 71%
    15:00 +14°C° 1,2 mm 3 m/S 593 mmHg 76%
    16:00 +14°C° 1,2 mm 3 m/S 592 mmHg 81%
    17:00 +13°C° 3,5 mm 2 m/S 591 mmHg 86%
    18:00 +12°C° 3,5 mm 2 m/S 591 mmHg 92%
    19:00 +10°C° 3,5 mm 2 m/S 590 mmHg 97%
    20:00 +9°C° 2,2 mm 2 m/S 589 mmHg 97%
    21:00 +8°C° 2,2 mm 2 m/S 589 mmHg 97%
    22:00 +8°C° 2,2 mm 2 m/S 588 mmHg 97%
    23:00 +8°C° 0,2 mm 2 m/S 588 mmHg 97%

    übermorgen, 29 Juni, Donnerstag

    Zeit Temperatur Niederschläge Wind Luftdruck Luftfeuchtigkeit
    00:00 +7°C° 0,2 mm 2 m/S 588 mmHg 97%
    01:00 +7°C° 0,2 mm 2 m/S 587 mmHg 97%
    02:00 +6°C° 0,6 mm 2 m/S 587 mmHg 97%
    03:00 +6°C° 0,6 mm 2 m/S 586 mmHg 97%
    04:00 +5°C° 0,6 mm 2 m/S 586 mmHg 97%
    05:00 +6°C° 0,4 mm 2 m/S 587 mmHg 96%
    06:00 +7°C° 0,4 mm 2 m/S 587 mmHg 95%
    07:00 +8°C° 0,4 mm 1 m/S 588 mmHg 94%
    08:00 +8°C° 0,5 mm 2 m/S 589 mmHg 91%
    09:00 +9°C° 0,5 mm 2 m/S 589 mmHg 88%
    10:00 +9°C° 0,5 mm 2 m/S 590 mmHg 85%
    11:00 +9°C° 1 mm 2 m/S 590 mmHg 87%
    12:00 +9°C° 1 mm 2 m/S 590 mmHg 88%
    13:00 +9°C° 1 mm 2 m/S 590 mmHg 90%
    14:00 +8°C° 0,9 mm 2 m/S 590 mmHg 90%
    15:00 +8°C° 0,9 mm 2 m/S 590 mmHg 91%
    16:00 +8°C° 0,9 mm 2 m/S 591 mmHg 91%
    17:00 +9°C° 0,7 mm 1 m/S 591 mmHg 93%
    18:00 +8°C° 0,7 mm 1 m/S 591 mmHg 94%
    19:00 +8°C° 0,7 mm 1 m/S 591 mmHg 95%
    20:00 +7°C° 0,6 mm 1 m/S 591 mmHg 95%
    21:00 +6°C° 0,6 mm 1 m/S 591 mmHg 96%
    22:00 +5°C° 0,6 mm 1 m/S 591 mmHg 96%
    23:00 +5°C° 0,3 mm 1 m/S 591 mmHg 95%

    30 Juni, Freitag

    Zeit Temperatur Niederschläge Wind Luftdruck Luftfeuchtigkeit
    00:00 +5°C° 0,3 mm 1 m/S 592 mmHg 95%
    01:00 +4°C° 0,3 mm 1 m/S 592 mmHg 94%
    02:00 +4°C° 0,1 mm 1 m/S 592 mmHg 93%
    03:00 +3°C° 0,1 mm 1 m/S 591 mmHg 93%
    04:00 +3°C° 0,1 mm 1 m/S 591 mmHg 93%
    05:00 +4°C° 0,1 mm 1 m/S 592 mmHg 91%
    06:00 +6°C° 0,1 mm 1 m/S 593 mmHg 89%
    07:00 +6°C° 0,1 mm 2 m/S 594 mmHg 88%
    08:00 +7°C° 0,2 mm 2 m/S 594 mmHg 83%
    09:00 +8°C° 0,2 mm 2 m/S 595 mmHg 77%
    10:00 +9°C° 0,2 mm 3 m/S 595 mmHg 72%
    11:00 +10°C° 0,4 mm 3 m/S 595 mmHg 72%
    12:00 +10°C° 0,4 mm 3 m/S 596 mmHg 71%
    13:00 +10°C° 0,4 mm 3 m/S 596 mmHg 71%
    14:00 +10°C° 0,7 mm 3 m/S 596 mmHg 72%
    15:00 +10°C° 0,7 mm 3 m/S 595 mmHg 73%
    16:00 +9°C° 0,7 mm 3 m/S 595 mmHg 74%
    17:00 +9°C° 0,5 mm 3 m/S 595 mmHg 79%
    18:00 +8°C° 0,5 mm 2 m/S 595 mmHg 83%
    19:00 +7°C° 0,5 mm 2 m/S 595 mmHg 88%
    20:00 +6°C° 0,4 mm 2 m/S 595 mmHg 91%
    21:00 +5°C° 0,4 mm 2 m/S 595 mmHg 93%
    22:00 +4°C° 0,4 mm 1 m/S 594 mmHg 96%
    23:00 +4°C° 0,3 mm 1 m/S 594 mmHg 96%

    1 Juli, Samstag

    Zeit Temperatur Niederschläge Wind Luftdruck Luftfeuchtigkeit
    00:00 +3°C° 0,3 mm 1 m/S 593 mmHg 96%
    01:00 +2°C° 0,3 mm 1 m/S 593 mmHg 95%
    02:00 +1°C° 0,1 mm 1 m/S 593 mmHg 94%
    03:00 +1°C° 0,1 mm 1 m/S 592 mmHg 93%
    04:00 +1°C° 0,1 mm 1 m/S 592 mmHg 92%
    05:00 +3°C° 0 mm 1 m/S 593 mmHg 86%
    06:00 +6°C° 0 mm 1 m/S 595 mmHg 80%
    07:00 +7°C° 0 mm 0 m/S 596 mmHg 75%
    08:00 +8°C° 0,1 mm 0 m/S 597 mmHg 67%
    09:00 +10°C° 0,1 mm 0 m/S 597 mmHg 60%
    10:00 +12°C° 0,1 mm 0 m/S 598 mmHg 52%
    11:00 +13°C° 0,2 mm 1 m/S 598 mmHg 54%
    12:00 +13°C° 0,2 mm 1 m/S 598 mmHg 55%
    13:00 +14°C° 0,2 mm 1 m/S 598 mmHg 56%
    14:00 +13°C° 0,8 mm 1 m/S 598 mmHg 63%
    15:00 +12°C° 0,8 mm 1 m/S 598 mmHg 69%
    16:00 +12°C° 0,8 mm 1 m/S 597 mmHg 75%
    17:00 +11°C° 0,7 mm 1 m/S 597 mmHg 81%
    18:00 +10°C° 0,7 mm 1 m/S 597 mmHg 86%
    19:00 +9°C° 0,7 mm 1 m/S 597 mmHg 92%
    20:00 +7°C° 0,2 mm 1 m/S 597 mmHg 93%
    21:00 +5°C° 0,2 mm 1 m/S 596 mmHg 95%
    22:00 +4°C° 0,2 mm 1 m/S 596 mmHg 97%
    23:00 +4°C° 0 mm 1 m/S 596 mmHg 97%

    2 Juli, Sonntag

    Zeit Temperatur Niederschläge Wind Luftdruck Luftfeuchtigkeit
    00:00 +3°C° 0 mm 1 m/S 596 mmHg 97%
    01:00 +3°C° 0 mm 1 m/S 596 mmHg 97%
    02:00 +3°C° 0,1 mm 1 m/S 596 mmHg 97%
    03:00 +3°C° 0,1 mm 1 m/S 596 mmHg 97%
    04:00 +2°C° 0,1 mm 2 m/S 596 mmHg 97%
    05:00 +3°C° 0,3 mm 2 m/S 597 mmHg 96%
    06:00 +4°C° 0,3 mm 2 m/S 598 mmHg 94%
    07:00 +5°C° 0,3 mm 2 m/S 598 mmHg 93%
    08:00 +7°C° 0,4 mm 1 m/S 599 mmHg 88%
    09:00 +8°C° 0,4 mm 1 m/S 599 mmHg 84%
    10:00 +9°C° 0,4 mm 1 m/S 600 mmHg 80%
    11:00 +9°C° 0,4 mm 1 m/S 600 mmHg 79%
    12:00 +9°C° 0,4 mm 2 m/S 600 mmHg 78%
    13:00 +9°C° 0,4 mm 2 m/S 600 mmHg 77%
    14:00 +10°C° 0,1 mm 2 m/S 600 mmHg 75%
    15:00 +10°C° 0,1 mm 2 m/S 600 mmHg 73%
    16:00 +12°C° 0,1 mm 2 m/S 600 mmHg 71%
    17:00 +10°C° 0,1 mm 2 m/S 600 mmHg 76%
    18:00 +9°C° 0,1 mm 2 m/S 600 mmHg 81%
    19:00 +9°C° 0,1 mm 1 m/S 600 mmHg 86%
    20:00 +8°C° 0,2 mm 1 m/S 599 mmHg 90%
    21:00 +7°C° 0,2 mm 1 m/S 599 mmHg 93%
    22:00 +6°C° 0,2 mm 1 m/S 599 mmHg 96%
    23:00 +6°C° 0,3 mm 1 m/S 599 mmHg 96%
    Mehr zeigen